Location: Newark
(46.1333°N, 13.0333°E)
Time: 21:26:46
(UTC+00:00)

ISS - Pass Details

Date: 20 November 2019
Orbit: 411 x 421 km, 51.6° (Epoch: 08 December)

Event Time Altitude Azimuth Distance (km) Brightness Sun altitude
Rises 17:25:32 0° 195° (SSW) 2,344 0.4 -19.5°
Reaches altitude 10° 17:28:16 10° 171° (S) 1,489 -1.0 -20.0°
Enters shadow 17:28:22 10° 169° (S) 1,466 -1.0 -20.0°
